DELTA 1 DEB

Satellite information

Favourite Embed

Satellite Type and Status

DEBRISIN ORBIT

Key statistics

Satellite DELTA 1 DEB at a glance.

Uptime

17229

Days in orbit

Revolutions

≈ 14.4

Per day

Orbit

SSO

Sun Synchronous Orbit

Inclination

98.6

Latest

Satellite identification and parameters

Extended collection of information and parameters for DELTA 1 DEB.

Object identification

Identified? True

Debris? True

Object name: DELTA 1 DEB

International designator: 1978-026HA

Object number (NORAD): 17768

Object ID (CCSDS): 17768

Country: UNITED STATES OF AMERICA (US)

Current information (Y/N): Y

RCS size: SMALL

Orbital parameters

Period: 99.762 minutes

Inclination: 98.6158 deg

SMA: 7125.328 km

Apoapsis: 800.851 km

Periapsis: 693.534 km

RAAN: 132.5737 deg

Eccentricy: 0.0075307

Argument of periapsis: 242.8074 deg

Mean anomaly: 273.5408 deg

Mean motion: 14.4342925 rev/day

Mean motion (dot): 0.00001179 rev/day2

B* drag term: 0.00035098 1/REarth

Two-line elements (TLE)

Creation date: May 4, 2025, 5:21 p.m.

Reference frame: TEME

Reference center: EARTH

Epoch: May 4, 2025, 11:40 a.m. UTC

TLE line 0: 0 DELTA 1 DEB

TLE line 1: 1 17768U 78026HA 25124.48640053 .00001179 00000-0 35098-3 0 9992

TLE line 2: 2 17768 98.6158 132.5737 0075307 242.8074 273.5408 14.43429250263368

Live tracking on map

Real-time ground track for satellite DELTA 1 DEB.

In-orbit conjunctions

A list of the most updated potential collisions computed for object DELTA 1 DEB.

Target Orbit TCA Probability of collision Miss distance Type
NOAA 16 DEB SSO 2024-12-19 20:00:56 0.0003203698 103.0 (m) DEBRIS
THORAD AGENA D DEB SSO 2024-11-02 08:05:40 0.0001982508 80.0 (m) DEBRIS
COSMOS 1275 DEB LEO 2024-10-17 12:02:05 0.0002427433 125.0 (m) DEBRIS
COSMOS 660 LEO 2024-09-26 14:23:37 0.00123789 158.0 (m) PAYLOAD
METEOR 2-7 DEB LEO 2024-07-01 17:25:28 0.0001362452 112.0 (m) DEBRIS

Associated space launch

Earth observation satellite

DELTA 1 DEB was lifted into orbit during the mission ‘Delta 2910 | Landsat 3’, on board a Delta 2910 space rocket.

The launch took place on March 5, 1978, 5:54 p.m. from Space Launch Complex 2W.

For more information about the launch, click the button.

Launch to space Delta 2910 | Landsat 3
Delta 2910 | Landsat 3

Agency: N/A

Status: Launch Successful

Launch date: March 5, 1978, 5:54 p.m. UTC

Rocket: Delta 2910

Launch pad: Space Launch Complex 2W

Location: Vandenberg SFB, CA, USA

...

Latest news about this satellite

There are no fresh news available about this satellite. Check back as we update our databases every day.


Newsletter sign-up

Weekly statistics, charts and insights to help you stay on top of the space industry.